TimeCDT,TemperatureF,Dew PointF,Humidity,Sea Level PressureIn,VisibilityMPH,Wind Direction,Wind SpeedMPH,Gust SpeedMPH,PrecipitationIn,Events,Conditions,WindDirDegrees,DateUTC
12:53 AM,64.9,64.0,97,30.01,6.0,Calm,Calm,-,N/A,,Clear,0,2012-03-29 05:53:00
1:53 AM,64.9,63.0,93,29.99,4.0,Calm,Calm,-,N/A,,Clear,0,2012-03-29 06:53:00
2:53 AM,64.0,62.1,93,29.99,5.0,Calm,Calm,-,N/A,,Partly Cloudy,0,2012-03-29 07:53:00
3:53 AM,64.0,63.0,96,29.99,4.0,Calm,Calm,-,N/A,,Partly Cloudy,0,2012-03-29 08:53:00
4:53 AM,64.9,63.0,93,29.98,4.0,Calm,Calm,-,N/A,,Clear,0,2012-03-29 09:53:00
5:53 AM,64.9,64.0,97,29.98,4.0,Calm,Calm,-,N/A,,Clear,0,2012-03-29 10:53:00
6:53 AM,64.0,63.0,96,29.99,3.0,Calm,Calm,-,N/A,,Clear,0,2012-03-29 11:53:00
7:53 AM,66.0,64.9,96,29.99,3.0,Calm,Calm,-,N/A,,Clear,0,2012-03-29 12:53:00
8:53 AM,71.1,66.9,87,30.01,10.0,Variable,3.5,-,N/A,,Clear,0,2012-03-29 13:53:00
9:53 AM,73.9,66.9,79,30.01,10.0,Variable,4.6,-,N/A,,Scattered Clouds,0,2012-03-29 14:53:00
10:53 AM,77.0,64.9,66,30.01,10.0,Variable,4.6,-,N/A,,Mostly Cloudy,0,2012-03-29 15:53:00
11:53 AM,79.0,63.0,58,29.99,10.0,Variable,3.5,-,N/A,,Mostly Cloudy,0,2012-03-29 16:53:00
12:53 PM,80.1,60.1,50,29.97,10.0,South,6.9,-,N/A,,Overcast,190,2012-03-29 17:53:00
1:53 PM,79.0,61.0,54,29.94,10.0,SSW,9.2,-,N/A,,Mostly Cloudy,200,2012-03-29 18:53:00
2:53 PM,82.0,60.1,47,29.93,10.0,South,12.7,17.3,N/A,,Scattered Clouds,180,2012-03-29 19:53:00
3:53 PM,81.0,59.0,47,29.90,10.0,South,11.5,-,N/A,,Clear,170,2012-03-29 20:53:00
4:53 PM,79.0,59.0,50,29.90,10.0,SSW,11.5,-,N/A,,Partly Cloudy,200,2012-03-29 21:53:00
5:53 PM,77.0,62.1,60,29.91,10.0,SSW,9.2,-,N/A,,Clear,200,2012-03-29 22:53:00
6:53 PM,75.0,62.1,64,29.92,10.0,SSW,10.4,-,N/A,,Clear,200,2012-03-29 23:53:00
7:53 PM,73.0,64.0,73,29.91,10.0,SSW,8.1,-,N/A,,Clear,200,2012-03-30 00:53:00
8:53 PM,73.0,64.9,76,29.91,10.0,South,4.6,-,N/A,,Partly Cloudy,170,2012-03-30 01:53:00
9:53 PM,72.0,66.0,81,29.90,10.0,SSE,3.5,-,N/A,,Mostly Cloudy,160,2012-03-30 02:53:00
10:49 PM,69.8,64.4,83,29.92,10.0,SSW,5.8,-,N/A,,Mostly Cloudy,200,2012-03-30 03:49:00
10:53 PM,71.1,64.0,78,29.91,10.0,SSW,5.8,-,N/A,,Mostly Cloudy,200,2012-03-30 03:53:00
11:39 PM,69.8,64.4,83,29.92,10.0,WSW,4.6,-,N/A,,Overcast,240,2012-03-30 04:39:00
11:53 PM,70.0,64.0,81,29.92,10.0,WSW,5.8,-,N/A,,Overcast,240,2012-03-30 04:53:00